Waco, TX

7:51 AM CST on November 22, 2017 (GMT -0600)
Waco Regional

Weather History for KACT - October, 2014

Change the Weather History Date:

Wednesday, October 15, 2014

  Actual Average Record
Temperature  
Mean Temperature 67 °F 69 °F  
Max Temperature 86 °F 80 °F 95 °F (1910)
Min Temperature 48 °F 57 °F 40 °F (2010)
Degree Days  
Heating Degree Days 0 2  
Month to date heating degree days 3 16  
Since 1 July heating degree days 3 22  
Cooling Degree Days 2 5  
Month to date cooling degree days 140 99  
Year to date cooling degree days 2654 2693  
Growing Degree Days 17 (Base 50)    
Moisture  
Dew Point 49 °F    
Average Humidity 59    
Maximum Humidity 93    
Minimum Humidity 25    
Precipitation  
Precipitation 0.00 in 0.13 in 2.63 in (2013)
Month to date precipitation 5.00 1.86  
Year to date precipitation 26.86 27.08  
Snow  
Snow 0.00 in 0.00 in 0.00 in ()
Month to date snowfall 0.0 0.0  
Since 1 July snowfall 0.0 0.0  
Since 1 September snowfall 0.0 0.0  
Snow Depth 0.00 in    
Sea Level Pressure  
Sea Level Pressure 30.04 in    
Wind  
Wind Speed 4 mph (South)    
Max Wind Speed 10 mph    
Max Gust Speed 13 mph    
Visibility 10 miles    
Events      
T = Trace of Precipitation, MM = Missing Value Source: NWS Daily Summary

Daily Weather History Graph

Daily Weather History Graph

Search for Another Location

Airport or City:

Trip Planner

Search our weather history database for the weather conditions in past years. The results will help you decide how hot, cold, wet, or windy it might be!

Date:

Astronomy

Oct. 15, 2014 Rise Set
Actual Time 7:32 AM CDT 6:56 PM CDT
Civil Twilight 7:07 AM CDT 7:21 PM CDT
Nautical Twilight 6:39 AM CDT 7:49 PM CDT
Astronomical Twilight 6:11 AM CDT 8:17 PM CDT
Moon 12:14 AM CDT (10/15) 2:06 PM CDT (10/15)
Length of Visible Light 12h 13m
Length of Day
11h 24m
Waning Gibbous, 51% of the Moon is Illuminated
Oct 15
Waning Gibbous
Oct 15
Last Quarter
Oct 23
New
Oct 30
First Quarter
Nov 6
Full

Hourly Weather History & Observations

Time (CDT) Temp. Dew Point Humidity Pressure Visibility Wind Dir Wind Speed Gust Speed Precip Events Conditions
12:51 AM 50.0 °F 48.2 °F 94% 30.07 in 9.0 mi WSW 5.8 mph - N/A   Clear
1:51 AM 50.0 °F 46.9 °F 89% 30.07 in 10.0 mi WSW 5.8 mph - N/A   Clear
2:51 AM 50.0 °F 46.9 °F 89% 30.06 in 10.0 mi SSW 6.9 mph - N/A   Clear
3:51 AM 48.9 °F 46.0 °F 90% 30.05 in 10.0 mi SSW 5.8 mph - N/A   Clear
4:51 AM 48.9 °F 46.0 °F 90% 30.05 in 10.0 mi Calm Calm - N/A   Clear
5:51 AM 48.9 °F 46.0 °F 90% 30.06 in 10.0 mi Calm Calm - N/A   Clear
6:51 AM 48.0 °F 46.0 °F 93% 30.07 in 10.0 mi Calm Calm - N/A   Clear
7:51 AM 48.9 °F 46.0 °F 90% 30.09 in 10.0 mi Calm Calm - N/A   Clear
8:51 AM 57.9 °F 52.0 °F 81% 30.10 in 10.0 mi Calm Calm - N/A   Clear
9:51 AM 64.0 °F 46.9 °F 54% 30.10 in 10.0 mi North 3.5 mph - N/A   Clear
10:51 AM 68.0 °F 48.0 °F 49% 30.11 in 10.0 mi NNE 4.6 mph - N/A   Clear
11:51 AM 73.9 °F 48.9 °F 41% 30.11 in 10.0 mi North 3.5 mph - N/A   Clear
12:51 PM 80.1 °F 51.1 °F 36% 30.09 in 10.0 mi Calm Calm - N/A   Clear
1:51 PM 82.9 °F 48.9 °F 31% 30.05 in 10.0 mi ENE 4.6 mph - N/A   Clear
2:51 PM 84.0 °F 48.9 °F 29% 30.02 in 10.0 mi Variable 4.6 mph - N/A   Clear
3:51 PM 84.9 °F 46.0 °F 26% 30.00 in 10.0 mi Variable 3.5 mph - N/A   Clear
4:51 PM 84.9 °F 45.0 °F 25% 29.98 in 10.0 mi ESE 4.6 mph - N/A   Clear
5:51 PM 82.9 °F 46.0 °F 27% 29.97 in 10.0 mi South 4.6 mph - N/A   Clear
6:51 PM 73.9 °F 52.0 °F 46% 29.98 in 10.0 mi ESE 6.9 mph - N/A   Clear
7:51 PM 69.1 °F 52.0 °F 54% 29.98 in 10.0 mi SE 4.6 mph - N/A   Clear
8:51 PM 66.9 °F 51.1 °F 57% 29.99 in 10.0 mi South 6.9 mph - N/A   Clear
9:51 PM 66.9 °F 53.1 °F 61% 29.99 in 10.0 mi South 9.2 mph - N/A   Clear
10:51 PM 63.0 °F 53.1 °F 70% 29.99 in 10.0 mi South 6.9 mph - N/A   Clear
11:51 PM 59.0 °F 53.1 °F 81% 29.97 in 10.0 mi SSW 4.6 mph - N/A   Clear